Location: Barcelona
(41.3830°N, 2.1830°E)
Time: 18:22:33
(UTC+01:00)

ISS - Pass Details

Date: 23 January 2020
Orbit: 415 x 422 km, 51.6° (Epoch: 23 January)

Event Time Altitude Azimuth Distance (km) Brightness Sun altitude
Rises 19:08:19 0° 244° (WSW) 2,361 1.8 -13.7°
Reaches altitude 10° 19:10:26 10° 249° (WSW) 1,499 0.5 -14.1°
Maximum altitude 19:13:44 55° 328° (NNW) 513 -3.3 -14.7°
Enters shadow 19:15:27 25° 37° (NE) 890 -2.5 -15.0°
